KB2UHF-8 Weather Reports


time (UTC)temp
C
wind
direction
speed
KPH
gust
KPH
rain 1hr
cm
rain 24hr
cm
rain mn
cm
humidity
%
barometer
mb
20260506204516 6 270 12.9 24.1 0.00 0.00 0.00 51 1015.0
20260506203538 6 270 12.9 25.7 0.00 0.00 0.00 49 1015.1
20260506202517 6 293 12.9 27.4 0.00 0.00 0.00 49 1015.1
20260506201516 6 270 9.7 17.7 0.00 0.00 0.00 50 1015.1
20260506200516 6 270 9.7 20.9 0.00 0.00 0.00 49 1015.1
20260506195556 6 270 12.9 27.4 0.00 0.00 0.00 50 1015.0
20260506194517 6 270 14.5 29.0 0.00 0.00 0.00 49 1015.1
20260506193516 6 315 11.3 19.3 0.00 0.00 0.00 50 1015.1
20260506192516 6 270 12.9 29.0 0.00 0.00 0.00 50 1015.2
20260506191537 6 270 9.7 17.7 0.00 0.00 0.00 50 1015.1
20260506190537 6 293 11.3 19.3 0.00 0.00 0.00 50 1015.1
20260506185537 6 270 14.5 25.7 0.00 0.00 0.00 50 1015.1
20260506184517 6 270 11.3 22.5 0.00 0.00 0.00 50 1015.2
20260506183516 6 270 16.1 24.1 0.00 0.00 0.00 49 1015.2
20260506182516 7 270 11.3 20.9 0.00 0.00 0.00 49 1015.1
20260506181516 7 315 14.5 30.6 0.00 0.00 0.00 49 1015.1
20260506180516 7 270 9.7 19.3 0.00 0.00 0.00 49 1015.1
20260506175516 7 248 12.9 19.3 0.00 0.00 0.00 52 1015.1
20260506174516 6 293 11.3 17.7 0.00 0.00 0.00 50 1015.2
20260506173516 6 248 11.3 25.7 0.00 0.00 0.00 53 1015.2
20260506172517 6 270 14.5 25.7 0.00 0.00 0.00 52 1015.3
20260506171516 6 270 16.1 35.4 0.00 0.00 0.00 50 1015.2
20260506170516 7 270 11.3 22.5 0.00 0.00 0.00 49 1015.3
20260506165516 7 315 17.7 32.2 0.00 0.00 0.00 51 1015.4
20260506164518 6 293 16.1 27.4 0.00 0.00 0.00 50 1015.3
20260506163516 6 315 9.7 19.3 0.00 0.00 0.00 53 1015.4
20260506162516 6 270 11.3 25.7 0.00 0.00 0.00 50 1015.2
20260506161536 6 338 11.3 19.3 0.00 0.00 0.00 52 1015.1
20260506160516 6 293 11.3 20.9 0.00 0.00 0.00 53 1015.4
20260506155516 6 315 14.5 25.7 0.00 0.00 0.00 53 1015.4
20260506154516 6 315 12.9 24.1 0.00 0.00 0.00 53 1015.4
20260506153518 6 315 12.9 25.7 0.00 0.00 0.00 55 1015.2
20260506152518 6 315 12.9 20.9 0.00 0.00 0.00 51 1015.2
20260506151516 6 315 9.7 17.7 0.00 0.00 0.00 53 1015.2
20260506150516 6 338 12.9 24.1 0.00 0.00 0.00 57 1015.3
20260506145536 5 315 12.9 22.5 0.00 0.00 0.00 55 1015.2
20260506144516 5 315 11.3 20.9 0.00 0.00 0.00 55 1015.4
20260506143516 5 315 9.7 20.9 0.00 0.00 0.00 58 1015.3
20260506142516 5 315 12.9 24.1 0.00 0.00 0.00 55 1015.0
20260506141516 5 338 11.3 19.3 0.00 0.00 0.00 58 1015.0
20260506140516 5 315 11.3 22.5 0.00 0.00 0.00 58 1015.0
20260506135516 4 270 14.5 29.0 0.00 0.00 0.00 56 1014.8
20260506134516 5 293 8.0 16.1 0.00 0.00 0.00 59 1014.8
20260506133516 4 315 11.3 22.5 0.00 0.00 0.00 59 1014.6
20260506132516 4 338 9.7 17.7 0.00 0.00 0.00 60 1014.7
20260506131516 3 338 11.3 17.7 0.00 0.00 0.00 61 1014.5
20260506130516 3 293 9.7 19.3 0.00 0.00 0.00 63 1014.3
20260506125516 3 315 9.7 16.1 0.00 0.00 0.00 66 1014.2
20260506124536 3 315 6.4 14.5 0.00 0.00 0.00 68 1014.2
20260506123516 2 315 6.4 16.1 0.00 0.00 0.00 68 1013.8
20260506122536 2 293 6.4 12.9 0.00 0.00 0.00 69 1013.7
20260506121536 2 315 6.4 12.9 0.00 0.00 0.00 70 1013.8
20260506120536 1 293 6.4 12.9 0.00 0.00 0.00 72 1013.7
20260506115516 1 293 6.4 14.5 0.00 0.00 0.00 74 1013.7
20260506114516 1 293 6.4 14.5 0.00 0.00 0.00 75 1013.6
20260506113516 1 293 6.4 12.9 0.00 0.00 0.00 75 1013.3
20260506112516 1 293 6.4 12.9 0.00 0.00 0.00 74 1013.1
20260506111516 1 293 6.4 11.3 0.00 0.00 0.00 74 1012.9
20260506110516 1 293 4.8 11.3 0.00 0.00 0.00 75 1012.9
20260506105516 1 293 4.8 11.3 0.00 0.00 0.00 74 1012.9
20260506104516 1 293 4.8 11.3 0.00 0.00 0.00 75 1012.9
20260506103516 0 293 6.4 12.9 0.00 0.00 0.00 76 1012.8
20260506102516 0 293 4.8 11.3 0.00 0.00 0.00 76 1012.7
20260506101516 1 293 3.2 9.7 0.00 0.00 0.00 76 1012.8
20260506100516 1 293 4.8 8.0 0.00 0.00 0.00 75 1012.4
20260506095536 0 293 3.2 6.4 0.00 0.00 0.00 76 1012.4
20260506094536 1 293 3.2 4.8 0.00 0.00 0.00 75 1012.4
20260506093515 1 293 3.2 6.4 0.00 0.00 0.00 75 1012.3
20260506092516 1 293 3.2 9.7 0.00 0.00 0.00 75 1012.2
20260506091515 1 270 3.2 4.8 0.00 0.00 0.00 75 1012.3
20260506090515 1 293 3.2 4.8 0.00 0.00 0.00 73 1012.5
20260506085516 2 293 3.2 4.8 0.00 0.00 0.00 71 1012.3
20260506084516 2 293 4.8 6.4 0.00 0.00 0.00 70 1012.2
20260506083515 2 293 4.8 8.0 0.00 0.00 0.00 71 1012.2
20260506082515 2 293 4.8 12.9 0.00 0.00 0.00 73 1012.3
20260506081516 1 293 6.4 11.3 0.00 0.00 0.00 76 1012.1
20260506080516 0 293 6.4 11.3 0.00 0.00 0.00 80 1011.9
20260506073516 0 270 4.8 6.4 0.00 0.00 0.00 78 1011.8
20260506072536 1 270 3.2 6.4 0.00 0.00 0.00 76 1011.6
20260506071516 1 270 3.2 4.8 0.00 0.00 0.00 74 1011.4
20260506070516 1 270 3.2 6.4 0.00 0.00 0.00 74 1011.4
20260506061515 2 270 3.2 4.8 0.00 0.00 0.00 69 1011.6
20260506060515 2 270 3.2 4.8 0.00 0.00 0.00 69 1011.9
20260506050555 3 270 3.2 3.2 0.00 0.00 0.00 60 1011.4
20260506044516 4 293 3.2 4.8 0.00 0.00 0.00 58 1011.1
20260506043516 5 293 1.6 4.8 0.00 0.00 0.00 56 1011.3
20260506042516 5 293 1.6 3.2 0.00 0.00 0.00 56 1011.2
20260506041516 5 293 3.2 3.2 0.00 0.00 0.00 55 1011.4
20260506040516 5 293 1.6 3.2 0.00 0.00 0.00 54 1011.2
20260506035516 5 293 1.6 3.2 0.00 0.00 0.00 54 1011.1
20260506034516 5 293 3.2 4.8 0.00 0.00 0.00 55 1011.2
20260506033516 5 293 1.6 3.2 0.00 0.00 0.00 53 1011.1
20260506032516 5 0.0 3.2 0.00 0.00 0.00 52 1011.2
20260506031516 5 0.0 3.2 0.00 0.00 0.00 52 1011.0
20260506030516 6 293 1.6 3.2 0.00 0.00 0.00 51 1011.2
20260506025516 6 293 1.6 3.2 0.00 0.00 0.00 49 1011.1
20260506024536 6 293 1.6 4.8 0.00 0.00 0.00 48 1011.0
20260506023516 6 315 1.6 4.8 0.00 0.00 0.00 48 1011.0
20260506022516 6 315 1.6 8.0 0.00 0.00 0.00 47 1010.7
20260506021516 7 315 3.2 8.0 0.00 0.00 0.00 47 1010.6
20260506020536 7 315 1.6 4.8 0.00 0.00 0.00 45 1010.4
20260506015516 7 315 3.2 6.4 0.00 0.00 0.00 45 1010.3
20260506014516 7 315 3.2 6.4 0.00 0.00 0.00 45 1010.1
20260506013536 7 315 3.2 8.0 0.00 0.00 0.00 45 1009.9
20260506012516 7 315 3.2 4.8 0.00 0.00 0.00 43 1009.9
20260506011516 7 315 4.8 8.0 0.00 0.00 0.00 44 1009.9
20260506010516 7 315 3.2 8.0 0.00 0.00 0.00 44 1009.5
20260506005516 7 315 4.8 8.0 0.00 0.00 0.00 44 1009.6
20260506004556 8 315 6.4 14.5 0.00 0.00 0.00 43 1009.5
20260506003516 8 315 6.4 14.5 0.00 0.00 0.00 42 1009.4
20260506002516 8 315 9.7 19.3 0.00 0.00 0.00 42 1009.5
20260506001515 8 293 4.8 9.7 0.00 0.00 0.00 44 1009.4
20260506000516 9 315 8.0 20.9 0.00 0.00 0.00 42 1009.3
20260505235516 9 293 11.3 22.5 0.00 0.00 0.00 41 1009.2
20260505234516 9 315 9.7 25.7 0.00 0.00 0.00 39 1009.3
20260505233516 9 315 12.9 24.1 0.00 0.00 0.00 41 1009.2
20260505232556 10 293 9.7 20.9 0.00 0.00 0.00 39 1009.1
20260505231515 10 293 9.7 20.9 0.00 0.00 0.00 39 1009.1
20260505230516 9 293 16.1 32.2 0.00 0.00 0.00 38 1009.2
20260505225516 10 270 14.5 24.1 0.00 0.00 0.00 38 1009.3
20260505224516 10 270 14.5 25.7 0.00 0.00 0.00 38 1009.3
20260505223515 10 315 12.9 27.4 0.00 0.00 0.00 39 1009.3
20260505222515 10 293 12.9 25.7 0.00 0.00 0.00 37 1009.0
20260505221515 10 293 9.7 19.3 0.00 0.00 0.00 38 1009.2
20260505220515 10 293 14.5 24.1 0.00 0.00 0.00 36 1009.0
20260505215536 10 270 11.3 24.1 0.00 0.00 0.00 38 1009.1
20260505214515 10 315 14.5 27.4 0.00 0.00 0.00 39 1009.0
20260505213516 10 270 14.5 30.6 0.00 0.00 0.00 40 1009.1
20260505212516 10 270 14.5 27.4 0.00 0.00 0.00 37 1009.1
20260505211535 11 270 16.1 32.2 0.00 0.00 0.00 36 1009.2
20260505210515 11 270 12.9 25.7 0.00 0.00 0.00 39 1009.1
20260505205515 10 270 9.7 20.9 0.00 0.00 0.00 38 1009.1